W0QQ Weather Reports


time (UTC)temp
C
wind
direction
speed
KPH
gust
KPH
rain 1hr
cm
rain 24hr
cm
rain mn
cm
humidity
%
barometer
mb
20260508051630 15 214 8.0 22.5 0.00 0.00 0.00 65 1010.9
20260508050054 15 201 8.0 24.1 0.00 0.00 0.00 64 1011.0
20260508044555 15 205 8.0 24.1 0.00 0.00 0.00 63 1011.1
20260508043132 15 11 8.0 20.9 0.00 0.00 0.00 63 1011.1
20260508041553 15 196 6.4 24.1 0.00 0.00 0.00 63 1011.1
20260508040006 16 11 4.8 16.1 0.00 0.00 0.00 62 1011.1
20260508034555 16 11 4.8 17.7 0.00 0.00 0.00 61 1011.1
20260508033005 16 11 4.8 19.3 0.00 0.00 0.00 60 1011.0
20260508031557 16 189 9.7 22.5 0.00 0.00 0.00 59 1011.1
20260508030008 17 192 8.0 22.5 0.00 0.00 0.00 58 1010.9
20260508024607 17 11 6.4 22.5 0.00 0.00 0.00 58 1010.8
20260508023023 17 11 8.0 25.7 0.00 0.00 0.00 58 1010.7
20260508021619 17 11 4.8 19.3 0.00 0.00 0.00 59 1010.5
20260508020018 17 11 4.8 17.7 0.00 0.00 0.00 57 1010.4
20260508014619 17 11 1.6 16.1 0.00 0.00 0.00 57 1010.3
20260508013034 17 192 4.8 12.9 0.00 0.00 0.00 56 1010.2
20260508011627 18 11 4.8 27.4 0.00 0.00 0.00 54 1010.2
20260508010042 18 11 3.2 12.9 0.00 0.00 0.00 54 1010.0
20260508004625 18 11 3.2 12.9 0.00 0.00 0.00 53 1010.1
20260508003033 19 11 4.8 14.5 0.00 0.00 0.00 51 1010.1
20260508001625 19 11 3.2 17.7 0.00 0.00 0.00 51 1010.1
20260508000044 20 210 3.2 17.7 0.00 0.00 0.00 50 1010.3
20260507234519 20 182 6.4 20.9 0.00 0.00 0.00 49 1010.5
20260507233118 20 11 9.7 27.4 0.00 0.00 0.00 48 1010.7
20260507231527 20 217 6.4 22.5 0.00 0.00 0.00 48 1010.8
20260507230109 20 250 11.3 29.0 0.00 0.00 0.00 47 1011.0
20260507224533 20 11 6.4 25.7 0.00 0.00 0.00 49 1011.0
20260507223106 20 245 8.0 27.4 0.00 0.00 0.00 47 1011.1
20260507221535 20 225 9.7 22.5 0.00 0.00 0.00 49 1011.2
20260507220110 20 255 8.0 22.5 0.00 0.00 0.00 50 1011.3
20260507214521 20 297 6.4 33.8 0.00 0.00 0.00 49 1011.4
20260507213109 21 248 9.7 32.2 0.00 0.00 0.00 48 1011.5
20260507211518 21 201 6.4 27.4 0.00 0.00 0.00 46 1011.8
20260507210121 21 11 11.3 27.4 0.00 0.00 0.00 50 1012.0
20260507204523 21 11 6.4 27.4 0.00 0.00 0.00 49 1012.3
20260507203114 21 11 9.7 27.4 0.00 0.00 0.00 49 1012.6
20260507201534 20 11 11.3 29.0 0.00 0.00 0.00 53 1013.0
20260507200118 21 208 8.0 35.4 0.00 0.00 0.00 51 1013.5
20260507194532 21 295 8.0 29.0 0.00 0.00 0.00 50 1013.5
20260507193134 20 11 8.0 30.6 0.00 0.00 0.00 56 1013.7
20260507191545 20 208 11.3 32.2 0.00 0.00 0.00 55 1013.7
20260507190130 19 11 8.0 43.5 0.00 0.00 0.00 56 1014.0
20260507184543 18 11 9.7 32.2 0.00 0.00 0.00 57 1014.2
20260507183004 18 11 11.3 30.6 0.00 0.00 0.00 55 1014.4
20260507181553 18 280 11.3 33.8 0.00 0.00 0.00 58 1014.6
20260507180008 18 270 6.4 32.2 0.00 0.00 0.00 57 1014.9
20260507174610 18 11 9.7 29.0 0.00 0.00 0.00 56 1015.1
20260507173019 18 11 17.7 37.0 0.00 0.00 0.00 56 1015.5
20260507171609 18 11 12.9 30.6 0.00 0.00 0.00 60 1015.5
20260507170011 18 11 14.5 33.8 0.00 0.00 0.00 57 1015.7
20260507163016 16 11 9.7 37.0 0.00 0.00 0.00 60 1016.2
20260507161617 17 11 11.3 37.0 0.00 0.00 0.00 59 1016.3
20260507160030 17 11 9.7 46.7 0.00 0.00 0.00 60 1016.3
20260507154615 16 253 6.4 27.4 0.00 0.00 0.00 63 1016.5
20260507153032 16 11 6.4 27.4 0.00 0.00 0.00 62 1016.6
20260507151611 16 216 3.2 24.1 0.00 0.00 0.00 66 1016.9
20260507150031 15 268 11.3 22.5 0.00 0.00 0.00 65 1017.2
20260507144615 15 11 6.4 22.5 0.00 0.00 0.00 69 1017.2
20260507143034 13 11 6.4 22.5 0.00 0.00 0.00 70 1017.1
20260507141625 13 201 4.8 22.5 0.00 0.00 0.00 73 1017.0
20260507140042 12 11 4.8 19.3 0.00 0.00 0.00 76 1017.2
20260507134632 11 11 3.2 14.5 0.00 0.00 0.00 79 1017.2
20260507133051 10 11 4.8 14.5 0.00 0.00 0.00 81 1017.2
20260507131505 9 11 4.8 19.3 0.00 0.00 0.00 82 1017.2
20260507130053 8 11 3.2 9.7 0.00 0.00 0.00 83 1017.3
20260507124505 8 227 0.0 9.7 0.00 0.00 0.00 83 1017.5
20260507123054 7 11 1.6 12.9 0.00 0.00 0.00 83 1017.5
20260507121511 7 11 3.2 14.5 0.00 0.00 0.00 82 1017.5
20260507120103 6 11 6.4 12.9 0.00 0.00 0.00 81 1017.5
20260507114515 6 11 3.2 12.9 0.00 0.00 0.00 80 1017.3
20260507113129 6 11 1.6 9.7 0.00 0.00 0.00 80 1017.4
20260507111558 6 11 1.6 9.7 0.00 0.00 0.00 79 1017.3
20260507110005 6 11 4.8 12.9 0.00 0.00 0.00 78 1017.1
20260507104543 6 11 0.0 8.0 0.00 0.00 0.00 76 1017.2
20260507103129 6 11 1.6 12.9 0.00 0.00 0.00 76 1017.4
20260507101553 6 11 1.6 12.9 0.00 0.00 0.00 75 1017.2
20260507100131 6 11 1.6 12.9 0.00 0.00 0.00 74 1017.2
20260507094542 7 11 3.2 12.9 0.00 0.00 0.00 74 1017.3
20260507093134 6 11 3.2 9.7 0.00 0.00 0.00 73 1017.4
20260507091541 6 11 3.2 14.5 0.00 0.00 0.00 74 1017.5
20260507090128 7 228 0.0 9.7 0.00 0.00 0.00 74 1017.6
20260507084548 7 11 1.6 8.0 0.00 0.00 0.00 74 1017.6
20260507083002 7 11 1.6 8.0 0.00 0.00 0.00 74 1017.7
20260507081553 7 11 0.0 8.0 0.00 0.00 0.00 73 1017.7
20260507080012 7 11 1.6 8.0 0.00 0.00 0.00 73 1017.6
20260507074558 7 11 4.8 14.5 0.00 0.00 0.00 73 1017.6
20260507073013 7 11 0.0 8.0 0.00 0.00 0.00 71 1017.7
20260507071610 7 11 0.0 4.8 0.00 0.00 0.00 69 1017.9
20260507070025 8 11 0.0 4.8 0.00 0.00 0.00 68 1018.1
20260507064626 8 11 0.0 4.8 0.00 0.00 0.00 67 1018.1
20260507063031 8 11 0.0 4.8 0.00 0.00 0.00 66 1018.2
20260507061618 9 243 0.0 9.7 0.00 0.00 0.00 65 1018.3
20260507060036 9 11 1.6 8.0 0.00 0.00 0.00 63 1018.4
20260507054620 9 11 1.6 9.7 0.00 0.00 0.00 63 1018.3
20260507053039 9 11 3.2 9.7 0.00 0.00 0.00 63 1018.4